This is the latest recevied weather packets stored in our database for station/object 9M4RLD-3. If no packets are shown the sender has not sent any weather packets the latest 10 day(s).
| Time | Temp. | Humidity | Pressure | Rain* | Wind** | Luminosity | Snow |
|---|---|---|---|---|---|---|---|
| 1777732267 | 23.33° C | 100% | 1033.5 hPa | - | - | - | - |
| 1777731067 | 23.33° C | 100% | 1033.5 hPa | - | - | - | - |
| 1777729867 | 23.33° C | 100% | 1033.4 hPa | - | - | - | - |
| 1777728667 | 22.78° C | 100% | 1033.2 hPa | - | - | - | - |
| 1777727467 | 22.78° C | 100% | 1032.8 hPa | - | - | - | - |
| 1777726267 | 23.33° C | 100% | 1032.5 hPa | - | - | - | - |
| 1777725067 | 22.78° C | 100% | 1032.2 hPa | - | - | - | - |
| 1777723867 | 23.33° C | 100% | 1031.8 hPa | - | - | - | - |
| 1777722667 | 22.78° C | 100% | 1031.7 hPa | - | - | - | - |
| 1777721467 | 23.33° C | 100% | 1031.5 hPa | - | - | - | - |
| 1777720267 | 23.33° C | 100% | 1031.2 hPa | - | - | - | - |
| 1777719066 | 23.33° C | 100% | 1030.9 hPa | - | - | - | - |
| 1777717866 | 23.89° C | 100% | 1030.7 hPa | - | - | - | - |
| 1777716666 | 24.44° C | 100% | 1030.6 hPa | - | - | - | - |
| 1777715466 | 25° C | 100% | 1030.7 hPa | - | - | - | - |
| 1777714266 | 25° C | 100% | 1030.5 hPa | - | - | - | - |
| 1777713066 | 25.56° C | 100% | 1030.6 hPa | - | - | - | - |
| 1777711866 | 25° C | 100% | 1030.7 hPa | - | - | - | - |
| 1777710666 | 25° C | 100% | 1030.8 hPa | - | - | - | - |
| 1777709511 | 24.44° C | 100% | 1031 hPa | - | - | - | - |
| 1777709466 | 24.44° C | 100% | 1031 hPa | - | - | - | - |
| 1777708266 | 24.44° C | 100% | 1031 hPa | - | - | - | - |
| 1777707066 | 25° C | 100% | 1031.3 hPa | - | - | - | - |
| 1777705913 | 25.56° C | 100% | 1031.7 hPa | - | - | - | - |
| 1777705866 | 25.56° C | 100% | 1031.7 hPa | - | - | - | - |
* Rain since midnight (hover to see other rain measurements)
** Current wind speed in m/s (hover to see current wind gust speed)